TimeCST,TemperatureF,Dew PointF,Humidity,Sea Level PressureIn,VisibilityMPH,Wind Direction,Wind SpeedMPH,Gust SpeedMPH,PrecipitationIn,Events,Conditions,WindDirDegrees,DateUTC
12:54 AM,30.9,24.1,76,30.15,10.0,NW,8.1,-,N/A,,Clear,320,2013-01-17 06:54:00
1:54 AM,30.9,25.0,79,30.18,10.0,NNW,8.1,-,N/A,,Clear,330,2013-01-17 07:54:00
2:54 AM,30.9,27.0,85,30.20,10.0,NNW,8.1,-,N/A,,Clear,340,2013-01-17 08:54:00
3:54 AM,32.0,28.0,85,30.22,10.0,North,9.2,-,N/A,,Clear,350,2013-01-17 09:54:00
4:31 AM,30.2,26.6,86,30.22,10.0,NNW,9.2,-,N/A,,Mostly Cloudy,340,2013-01-17 10:31:00
4:54 AM,30.9,28.0,89,30.26,10.0,NNW,10.4,-,N/A,,Overcast,340,2013-01-17 10:54:00
5:40 AM,32.0,26.6,80,30.26,10.0,North,16.1,-,N/A,,Scattered Clouds,350,2013-01-17 11:40:00
5:54 AM,30.9,25.0,79,30.29,10.0,North,13.8,-,N/A,,Partly Cloudy,360,2013-01-17 11:54:00
6:54 AM,28.0,23.0,81,30.32,10.0,North,15.0,-,N/A,,Scattered Clouds,360,2013-01-17 12:54:00
7:54 AM,26.1,21.9,84,30.36,10.0,North,10.4,-,N/A,,Clear,350,2013-01-17 13:54:00
8:54 AM,28.0,19.9,72,30.40,10.0,North,10.4,-,N/A,,Clear,360,2013-01-17 14:54:00
9:54 AM,30.0,17.1,59,30.42,10.0,North,11.5,-,N/A,,Clear,350,2013-01-17 15:54:00
10:54 AM,32.0,15.1,50,30.43,10.0,NNW,15.0,-,N/A,,Clear,330,2013-01-17 16:54:00
11:54 AM,32.0,17.1,54,30.42,10.0,NNW,12.7,-,N/A,,Clear,330,2013-01-17 17:54:00
12:54 PM,34.0,17.1,50,30.41,10.0,NW,11.5,-,N/A,,Clear,320,2013-01-17 18:54:00
1:54 PM,35.1,18.0,50,30.40,10.0,NNW,11.5,-,N/A,,Clear,330,2013-01-17 19:54:00
2:54 PM,35.1,17.1,48,30.41,10.0,NNW,8.1,-,N/A,,Clear,330,2013-01-17 20:54:00
3:54 PM,35.1,19.0,52,30.42,10.0,NW,6.9,-,N/A,,Clear,310,2013-01-17 21:54:00
4:54 PM,32.0,21.0,64,30.44,10.0,NW,3.5,-,N/A,,Clear,310,2013-01-17 22:54:00
5:54 PM,30.0,19.9,66,30.45,10.0,Calm,Calm,-,N/A,,Clear,0,2013-01-17 23:54:00
6:54 PM,28.9,19.0,67,30.46,10.0,Calm,Calm,-,N/A,,Clear,0,2013-01-18 00:54:00
7:54 PM,26.1,19.9,78,30.47,10.0,SSW,4.6,-,N/A,,Clear,200,2013-01-18 01:54:00
8:54 PM,28.0,18.0,66,30.47,10.0,South,4.6,-,N/A,,Clear,190,2013-01-18 02:54:00
9:54 PM,26.1,18.0,71,30.47,10.0,SSW,6.9,-,N/A,,Clear,200,2013-01-18 03:54:00
10:54 PM,26.1,18.0,71,30.46,10.0,South,4.6,-,N/A,,Clear,190,2013-01-18 04:54:00
11:54 PM,26.1,18.0,71,30.47,10.0,South,4.6,-,N/A,,Clear,190,2013-01-18 05:54:00